Observations for Trim Market St
| Time | AQI | Temp °C | Hum % | Pres Pa | CO μg/m³ | H₂S μg/m³ | NO μg/m³ | NO₂ μg/m³ | O₃ μg/m³ | SO₂ μg/m³ | PM1 μg/m³ | PM2.5 μg/m³ | PM10 μg/m³ |
|---|---|---|---|---|---|---|---|---|---|---|---|---|---|
| Tuesday 11 August 2026 | |||||||||||||
| 10:53 | 1 | 36.9 | 27 | 66,700 | 0 | 0 | 0.19 | 12.29 | 73.65 | 0 | 0 | 2.89 | 3.18 |
| 10:52 | 1 | 36.8 | 27 | 66,700 | 0 | 0 | 0.22 | 12.19 | 81.32 | 0 | 1.43 | 4.52 | 4.97 |
| 10:47 | 1 | 36.7 | 27 | 66,682 | 0 | 0 | 0.22 | 13.26 | 71.37 | 0 | 0 | 2.88 | 3.17 |
| 10:46 | 1 | 36.7 | 27 | 66,675 | 0 | 0 | 0.21 | 13.23 | 77.75 | 0 | 0 | 3.43 | 3.77 |
| 10:45 | 1 | 36.7 | 27 | 66,669 | 0 | 0 | 0.19 | 12.6 | 70.48 | 0 | 0.71 | 3.97 | 4.37 |
| 10:43 | 1 | 36.5 | 28 | 66,661 | 0 | 0 | 0.22 | 13.16 | 73.56 | 0 | 0 | 2.86 | 3.14 |
| 10:40 | 1 | 36.3 | 28 | 66,633 | 0 | 0 | 0.27 | 13.12 | 74.41 | 0 | 0.71 | 3.94 | 4.34 |
| 10:37 | 1 | 36.1 | 28 | 66,667 | 0 | 0 | 0.28 | 13.19 | 73.97 | 0 | 0.71 | 3.95 | 4.34 |
| 10:35 | 1 | 36.1 | 28 | 66,619 | 0 | 0 | 0.27 | 13.24 | 67.13 | 0 | 0 | 3.96 | 4.35 |
| 10:27 | 1 | 35.7 | 28 | 66,596 | 0 | 0 | 0.33 | 13.06 | 64.71 | 0 | 0 | 3.38 | 3.72 |
| 10:26 | 1 | 35.6 | 29 | 66,578 | 0 | 0 | 0.33 | 13.03 | 66.25 | 0 | 0 | 3.37 | 3.7 |
| 10:25 | 1 | 35.6 | 29 | 66,550 | 0 | 0 | 0.31 | 13.09 | 75.9 | 0 | 0.71 | 3.37 | 3.7 |
| 10:23 | 1 | 35.4 | 29 | 66,519 | 0 | 0 | 0.35 | 11.28 | 75.08 | 0 | 0.71 | 3.9 | 4.29 |
| 10:22 | 1 | 35.3 | 29 | 66,541 | 0 | 0 | 0.35 | 7.62 | 37.57 | 0 | 0 | 3.34 | 3.67 |
| 10:21 | 1 | 35.3 | 30 | 66,543 | 0 | 0 | 0.35 | 11.94 | 69.25 | 0 | 0 | 3.33 | 3.66 |
| 10:20 | 1 | 35.2 | 30 | 66,513 | 0 | 0 | 0.37 | 11.55 | 51.23 | 0 | 0.71 | 3.86 | 4.24 |
| 10:19 | 1 | 35.1 | 30 | 66,503 | 0 | 0 | 0.37 | 12.41 | 57.89 | 0 | 0 | 2.75 | 3.03 |
| 10:18 | 1 | 35 | 31 | 66,489 | 0 | 0 | 0.36 | 11.35 | 63.99 | 0 | 0.71 | 3.27 | 3.6 |
| 10:17 | 1 | 34.9 | 31 | 66,476 | 0 | 0 | 0.37 | 12.1 | 71.24 | 0 | 0 | 2.72 | 2.99 |
| 10:16 | 1 | 34.8 | 31 | 66,485 | 0 | 0 | 0.38 | 12.94 | 75.29 | 0 | 0 | 2.72 | 2.99 |